Simultaneous Nadir Overpasses (SNOs) Predictions

Prediction of SNOs between GOES-16 and TERRA Satellite Orbit:

Table of predicted SNOs for the next 14.0 days since TLE Epoch: 7/25/2020
Index Date Time (GOES-16) GOES-16 Lat,Lon TERRA Lat,Lon Distance(km) Time Diff (sec)
1 07/25/2020 03:28:22 0.02, -75.19 0.18, -74.53 75.63 2
2 07/27/2020 03:14:52 0.02, -75.19 0.76, -71.57 411.87 80
3 07/27/2020 15:38:48 -0.01, -75.20 0.31, -76.73 173.39 80
4 07/29/2020 15:23:57 -0.02, -75.21 -0.34, -73.77 163.47 80
5 07/30/2020 03:48:01 0.01, -75.20 -0.78, -78.96 427.27 80
6 08/01/2020 03:35:50 0.01, -75.21 -0.13, -76.01 90.01 80
7 08/03/2020 03:20:58 0.02, -75.23 0.46, -73.04 247.96 80
8 08/03/2020 15:44:54 -0.01, -75.24 0.61, -78.21 336.91 80
9 08/05/2020 15:30:03 -0.02, -75.27 -0.05, -75.25 3.18 80
10 08/07/2020 15:17:51 -0.03, -75.30 -0.64, -72.29 342.01 80
